TimeMDT,TemperatureF,Dew PointF,Humidity,Sea Level PressureIn,VisibilityMPH,Wind Direction,Wind SpeedMPH,Gust SpeedMPH,PrecipitationIn,Events,Conditions,WindDirDegrees,DateUTC
12:15 AM,44.6,28.4,53,30.12,10.0,SSE,4.6,-,N/A,,Clear,150,2012-10-16 06:15:00
12:35 AM,42.8,28.4,57,30.13,10.0,West,4.6,-,N/A,,Partly Cloudy,260,2012-10-16 06:35:00
12:55 AM,46.4,28.4,50,30.13,10.0,WSW,3.5,-,N/A,,Partly Cloudy,250,2012-10-16 06:55:00
1:15 AM,42.8,28.4,57,30.13,10.0,SSE,5.8,-,N/A,,Scattered Clouds,160,2012-10-16 07:15:00
1:35 AM,44.6,28.4,53,30.12,10.0,SSW,3.5,-,N/A,,Partly Cloudy,200,2012-10-16 07:35:00
1:55 AM,42.8,28.4,57,30.11,10.0,SW,4.6,-,N/A,,Clear,220,2012-10-16 07:55:00
2:15 AM,42.8,28.4,57,30.11,10.0,East,3.5,-,N/A,,Clear,90,2012-10-16 08:15:00
2:35 AM,42.8,28.4,57,30.11,10.0,East,3.5,-,N/A,,Clear,90,2012-10-16 08:35:00
2:55 AM,37.4,28.4,70,30.11,10.0,South,6.9,-,N/A,,Clear,170,2012-10-16 08:55:00
3:15 AM,37.4,28.4,70,30.10,10.0,South,6.9,-,N/A,,Clear,170,2012-10-16 09:15:00
3:35 AM,39.2,28.4,65,30.09,10.0,SE,4.6,-,N/A,,Clear,130,2012-10-16 09:35:00
3:55 AM,37.4,28.4,70,30.09,10.0,ESE,8.1,-,N/A,,Clear,110,2012-10-16 09:55:00
4:15 AM,39.2,28.4,65,30.09,10.0,SE,5.8,-,N/A,,Clear,130,2012-10-16 10:15:00
4:35 AM,39.2,28.4,65,30.09,10.0,SSE,4.6,-,N/A,,Clear,150,2012-10-16 10:35:00
4:55 AM,37.4,28.4,70,30.09,10.0,SE,8.1,-,N/A,,Clear,140,2012-10-16 10:55:00
5:35 AM,37.4,28.4,70,30.07,10.0,SE,6.9,-,N/A,,Clear,140,2012-10-16 11:35:00
6:15 AM,37.4,28.4,70,30.07,10.0,SSE,4.6,-,N/A,,Clear,150,2012-10-16 12:15:00
6:35 AM,37.4,28.4,70,30.07,10.0,SSE,11.5,-,N/A,,Partly Cloudy,150,2012-10-16 12:35:00
6:55 AM,37.4,28.4,70,30.06,10.0,SSE,10.4,-,N/A,,Scattered Clouds,150,2012-10-16 12:55:00
7:15 AM,35.6,28.4,75,30.06,10.0,SSE,9.2,-,N/A,,Partly Cloudy,150,2012-10-16 13:15:00
7:35 AM,37.4,28.4,70,30.05,10.0,SSE,11.5,-,N/A,,Clear,150,2012-10-16 13:35:00
7:55 AM,37.4,28.4,70,30.05,10.0,SSE,6.9,-,N/A,,Clear,160,2012-10-16 13:55:00
8:15 AM,37.4,30.2,75,30.06,10.0,SSE,8.1,-,N/A,,Clear,160,2012-10-16 14:15:00
8:35 AM,41.0,30.2,65,30.05,10.0,SSE,6.9,-,N/A,,Clear,160,2012-10-16 14:35:00
8:55 AM,42.8,32.0,66,30.05,10.0,SSE,4.6,-,N/A,,Clear,150,2012-10-16 14:55:00
9:15 AM,44.6,32.0,61,30.03,10.0,SSE,6.9,-,N/A,,Clear,160,2012-10-16 15:15:00
9:35 AM,46.4,32.0,57,30.03,10.0,SSE,8.1,-,N/A,,Clear,150,2012-10-16 15:35:00
9:55 AM,46.4,33.8,62,30.03,10.0,SSE,6.9,-,N/A,,Clear,160,2012-10-16 15:55:00
10:15 AM,50.0,32.0,50,30.02,10.0,SSE,9.2,-,N/A,,Clear,150,2012-10-16 16:15:00
10:35 AM,51.8,32.0,47,30.01,10.0,SE,8.1,-,N/A,,Clear,140,2012-10-16 16:35:00
10:55 AM,53.6,32.0,44,29.99,10.0,SE,5.8,-,N/A,,Clear,140,2012-10-16 16:55:00
11:15 AM,53.6,30.2,41,29.98,10.0,East,3.5,-,N/A,,Clear,90,2012-10-16 17:15:00
11:35 AM,55.4,32.0,41,29.98,10.0,NNE,3.5,-,N/A,,Clear,30,2012-10-16 17:35:00
12:15 PM,60.8,33.8,36,29.94,10.0,NW,15.0,19.6,N/A,,Partly Cloudy,310,2012-10-16 18:15:00
12:35 PM,62.6,32.0,32,29.92,10.0,WNW,18.4,29.9,N/A,,Mostly Cloudy,290,2012-10-16 18:35:00
1:15 PM,64.4,30.2,28,29.88,10.0,West,21.9,32.2,N/A,,Partly Cloudy,280,2012-10-16 19:15:00
1:35 PM,64.4,30.2,28,29.86,10.0,West,13.8,27.6,N/A,,Clear,280,2012-10-16 19:35:00
2:15 PM,64.4,30.2,28,29.82,10.0,West,17.3,26.5,N/A,,Mostly Cloudy,280,2012-10-16 20:15:00
2:35 PM,64.4,32.0,30,29.80,10.0,West,19.6,29.9,N/A,,Overcast,260,2012-10-16 20:35:00
2:55 PM,64.4,32.0,30,29.78,10.0,WSW,17.3,28.8,N/A,,Overcast,250,2012-10-16 20:55:00
3:15 PM,64.4,33.8,32,29.77,10.0,West,17.3,28.8,N/A,,Overcast,280,2012-10-16 21:15:00
4:15 PM,64.4,32.0,30,29.74,10.0,West,21.9,28.8,N/A,,Overcast,280,2012-10-16 22:15:00
4:35 PM,64.4,33.8,32,29.74,10.0,West,19.6,28.8,N/A,,Overcast,280,2012-10-16 22:35:00
4:55 PM,62.6,33.8,34,29.73,10.0,West,16.1,20.7,N/A,,Overcast,270,2012-10-16 22:55:00
5:15 PM,62.6,35.6,37,29.75,9.0,West,19.6,31.1,N/A,,Overcast,280,2012-10-16 23:15:00
5:35 PM,57.2,39.2,51,29.74,10.0,NW,15.0,27.6,N/A,,Overcast,310,2012-10-16 23:35:00
6:35 PM,57.2,39.2,51,29.74,10.0,NW,16.1,28.8,N/A,,Overcast,310,2012-10-17 00:35:00
6:55 PM,51.8,41.0,67,29.75,8.0,NNW,32.2,54.1,N/A,Thunderstorm,Thunderstorm,330,2012-10-17 00:55:00
7:15 PM,46.4,41.0,81,29.79,6.0,WNW,43.7,52.9,N/A,Thunderstorm,Thunderstorm,300,2012-10-17 01:15:00
7:35 PM,44.6,39.2,81,29.80,9.0,NW,29.9,49.5,N/A,,Mostly Cloudy,310,2012-10-17 01:35:00
7:55 PM,44.6,37.4,76,29.87,10.0,West,20.7,42.6,0.04,,Mostly Cloudy,260,2012-10-17 01:55:00
8:15 PM,44.6,39.2,81,29.87,10.0,WNW,17.3,21.9,N/A,,Mostly Cloudy,290,2012-10-17 02:15:00
8:35 PM,44.6,37.4,76,29.90,10.0,West,21.9,33.4,N/A,,Overcast,260,2012-10-17 02:35:00
8:55 PM,42.8,37.4,81,29.89,10.0,West,16.1,21.9,N/A,,Overcast,270,2012-10-17 02:55:00
9:35 PM,42.8,37.4,81,29.89,10.0,WSW,5.8,-,N/A,,Overcast,240,2012-10-17 03:35:00
9:55 PM,42.8,37.4,81,29.88,10.0,West,3.5,-,N/A,,Overcast,260,2012-10-17 03:55:00
10:15 PM,44.6,35.6,71,29.89,10.0,WSW,6.9,-,N/A,,Overcast,250,2012-10-17 04:15:00
10:35 PM,42.8,35.6,76,29.89,10.0,SW,6.9,-,N/A,,Overcast,230,2012-10-17 04:35:00
10:55 PM,44.6,33.8,66,29.90,10.0,West,9.2,-,N/A,,Overcast,260,2012-10-17 04:55:00
11:15 PM,42.8,33.8,70,29.90,10.0,West,6.9,-,N/A,,Scattered Clouds,270,2012-10-17 05:15:00
11:35 PM,42.8,32.0,66,29.91,10.0,WSW,5.8,-,N/A,,Mostly Cloudy,250,2012-10-17 05:35:00
11:55 PM,42.8,30.2,61,29.91,10.0,WSW,6.9,-,N/A,,Partly Cloudy,250,2012-10-17 05:55:00